Regional Weather Roundup
Issued by NWS Sterling, VA

Home | Current Version | Previous Version | Graphics & Text | Print | Product List | Glossary On
Versions: 1 2 3 4 5 6 7 8 9 10 11 12 13 14 15 16 17 18 19 20 21 22 23 24 25 26 27
000
ASUS41 KLWX 280311
RWRLWX

REGIONAL WEATHER ROUNDUP
NATIONAL WEATHER SERVICE BALTIMORE MD/WASHINGTON DC
1100 PM EDT THU APR 27 2017

Note: "FAIR" indicates few or no clouds below 12,000 feet
with no significant weather and/or obstructions to visibility.
 TC=TEMPERATURE CELSIUS

 * =Non NWS site. Station does not report precipitation (e.g. rain,
    snow, etc.), thunder, or fog.

DCZ001-MDZ009-015-VAZ040>042-051-053>054-280400-
WASHINGTON METRO

CITY           SKY/WX    TMP DP  RH WIND       PRES   REMARKS
WASHINGTON NAT CLOUDY    74  62  66 SW13      29.82R
DULLES         CLOUDY    73  58  59 S16G24    29.81R
ANDREWS AFB    MOCLDY    73  59  60 SW14      29.82S
FT BELVOIR     LGT RAIN  73  59  60 S6        29.82S
QUANTICO       LGT RAIN  73  62  68 SW9G24    29.84R
COLLEGE PARK*  CLOUDY    73  60  63 S5        29.81S
LEESBURG*      MOCLDY    73  61  64 SW7       29.82F
MANASSAS*        N/A     69  62  78 S8        29.83R

$$

MDZ006>007-011-014-280400-
BALTIMORE METRO

CITY           SKY/WX    TMP DP  RH WIND       PRES   REMARKS
BWI AIRPORT    CLOUDY    69  61  75 CALM      29.80F
MD SCIENCE CTR   N/A     71  60  68 MISG      29.81F
MARTIN STATE   LGT RAIN  70  64  83 E5        29.82F
ANNAPOLIS      MOCLDY    67  61  81 S10       29.81F
FORT MEADE*    CLOUDY    63  61  94 S3        29.84R

$$

MDZ012-015-019>023-280400-
MARYLAND EASTERN SHORE

CITY           SKY/WX    TMP DP  RH WIND       PRES   REMARKS
OCEAN CITY     CLEAR     64  59  83 SW10      29.88F
SALISBURY      CLEAR     66  63  90 S7        29.87R
BAY BRIDGE AP* CLOUDY    72  61  68 S9        29.82F
CAMBRIDGE*       N/A     68  64  88 S7        29.85S
EASTON*        CLOUDY    72  63  72 S9        29.87F

$$

MDZ017>025-280400-
SOUTHERN MARYLAND

CITY           SKY/WX    TMP DP  RH WIND       PRES   REMARKS
PATUXENT RIVER CLOUDY    73  62  68 SW10      29.84S
ST INIGOES     CLOUDY    71  61  70 SE5       29.85S
LEONARDTOWN*   CLOUDY    73  59  60 SW6       29.87S

$$

MDZ003>005-280400-
NORTH CENTRAL MARYLAND

CITY           SKY/WX    TMP DP  RH WIND       PRES   REMARKS
FREDERICK*     CLOUDY    77  63  61 S15G25    29.82S
HAGERSTOWN APT PTCLDY    68  63  84 CALM      29.80S
WESTMINSTER*   CLOUDY    72  63  73 S6        29.82S

$$

MDZ501>502-280400-
WESTERN MARYLAND

CITY           SKY/WX    TMP DP  RH WIND       PRES   REMARKS
OAKLAND*       CLEAR     55  55 100 SW8       29.88R
CUMBERLAND*    PTCLDY    63  63 100 CALM      29.86R

$$

VAZ025>031-280400-
SHENANDOAH VALLEY

CITY           SKY/WX    TMP DP  RH WIND       PRES   REMARKS
WINCHESTER*    CLOUDY    70  57  64 SW7       29.82R
FRONT ROYAL*   CLOUDY    68  61  77 SW6       29.81F
LURAY*         CLEAR     66  61  82 S10       29.84S
NEW MARKET*    MOCLDY    66  59  79 SW7       29.83S
STAUNTON*      PTCLDY    63  59  88 S7        29.90R
WAYNESBORO*    CLOUDY    62  61  98 CALM      29.88S

$$

WVZ021-048>050-054>055-280400-
EASTERN WEST VIRGINIA PANHANDLE

CITY           SKY/WX    TMP DP  RH WIND       PRES   REMARKS
MARTINSBURG    PTCLDY    65  62  90 S5        29.80R
PETERSBURG*    FOG       62  62  98 SE3       29.84R VSB 3/4

$$

VAZ036>039-050-280400-
CENTRAL FOOTHILLS

CITY           SKY/WX    TMP DP  RH WIND       PRES   REMARKS
CHARLOTTESVILL CLOUDY    65  63  93 S8        29.85F
CULPEPER*      CLOUDY    69  62  80 S3        29.85F
ORANGE*        CLOUDY    64  63  94 CALM      29.85S
GORDONSVILLE*  CLOUDY    67  62  82 SW5       29.85S
WARRENTON*     CLOUDY    69  59  70 SW7       29.83F

$$

VAZ055>057-280400-
NORTH AND CENTRAL PIEDMONT

CITY           SKY/WX    TMP DP  RH WIND       PRES   REMARKS
FREDERICKSBRG* CLOUDY    75  60  58 SW9G17    29.84S
STAFFORD*      LGT RAIN  68  64  85 SW5       29.87S

$$

NCZ024-NYZ072-PAZ021-071-VAZ022-071-280400-
OTHER REGIONAL OBSERVATIONS

CITY           SKY/WX    TMP DP  RH WIND       PRES   REMARKS
NEW YORK CITY  CLOUDY    57  56  96 VRB3      29.91F FOG
PHILADELPHIA   CLOUDY    68  61  78 CALM      29.83F
PITTSBURGH     CLEAR     56  56 100 S5        29.81R
ROANOKE        PTCLDY    63  62  97 CALM      29.93R
RICHMOND       CLOUDY    73  59  61 SW12      29.88R
RALEIGH        CLOUDY    74  64  71 S10       29.91R

$$

ANZ530>537-280400-
MARINE OBSERVATIONS

STATION/POSITION TIME  TEMP    WIND        PRES
                       AIR SEA DIR/SP/G
                 (UTC) (F)     (DEG/KT/KT) (MB)
THOMAS PT LIGHT  0300   65 59  170/ 15/ 15   N/A
BALT KEY BRIDGE  0242   70     150/ 10/ 12 1009.3S
COVE POINT       0242   63     180/  9/  9 1011.1R
LEWISETTA        0242   75 66  220/  8/ 10 1010.5F
SOLOMONS ISLAND  0242   71 61  220/ 12/ 13   N/A
PINEY POINT      0248          230/  9/ 10   N/A

$$





USA.gov is the U.S. government's official web portal to all federal, state and local government web resources and services.